Regional Weather Roundup
Issued by NWS

Home | Current Version | Previous Version | Text Only | Print | Product List | Glossary On
Versions: 1 2 3 4 5 6 7 8 9 10 11 12 13 14 15 16 17 18 19 20 21 22 23 24 25 26 27 28 29 30 31 32 33 34 35 36 37 38 39 40 41 42 43 44 45 46 47 48 49 50
000
ASUS45 KPSR 191610
RWRAZ

ARIZONA REGIONAL HOURLY WEATHER ROUNDUP
NATIONAL WEATHER SERVICE PHOENIX AZ
900 AM MST FRI SEP 19 2014

NOTE: FAIR INDICATES FEW OR NO CLOUDS BELOW 12,000 FEET WITH NO
SIGNIFICANT WEATHER AND/OR OBSTRUCTIONS TO VISIBILITY.

AZZ001>003-036-191700-
NORTHWEST ARIZONA

CITY           SKY/WX    TMP DP  RH WIND       PRES   REMARKS
BULLHEAD CITY  SUNNY     86  52  30 SW6       29.81R
KINGMAN        SUNNY     80  55  42 E15       29.97R
$$

AZZ004>008-015-016-018-191700-
NORTH CENTRAL ARIZONA

CITY           SKY/WX    TMP DP  RH WIND       PRES   REMARKS
GRAND CANYON   PTSUNNY   64  57  78 CALM      30.19S
PRESCOTT       PTSUNNY   74  58  57 CALM      30.10R
FLAGSTAFF      PTSUNNY   63  56  78 W3        30.21R
PAYSON         CLOUDY    70  63  78 CALM      30.12R
PAGE           PTSUNNY   82  49  31 NW3       30.01R
$$

AZZ009>014-017-191700-
NORTHEAST ARIZONA

CITY           SKY/WX    TMP DP  RH WIND       PRES   REMARKS
WINSLOW        SUNNY     73  60  63 CALM      30.08R
SAINT JOHNS    SUNNY     69  58  67 CALM      30.12R
WINDOW ROCK    SUNNY     69  50  50 CALM      30.18S
SHOW LOW       CLOUDY    64  55  72 CALM      30.19R
$$

AZZ023-191700-
GREATER PHOENIX AREA

CITY           SKY/WX    TMP DP  RH WIND       PRES   REMARKS
PHOENIX        MOSUNNY   88  69  53 NE3       29.83S
BUCKEYE          N/A     82  72  69 SW3       29.85S
GLENDALE       PTSUNNY   84  70  61 S6        29.86R
LUKE AFB       MOSUNNY   84  71  63 SW7       29.84R
DEER VALLEY    PTSUNNY   84  69  60 VRB3      29.86R
SCOTTSDALE     SUNNY     82  70  65 S6        29.88R
MESA-GATEWAY   MOSUNNY   84  72  65 S6        29.88R
CHANDLER       PTSUNNY   84  73  70 CALM      29.85S
$$

AZZ027-028-191700-
SOUTHWEST MARICOPA COUNTY AND PINAL COUNTY

CITY           SKY/WX    TMP DP  RH WIND       PRES   REMARKS
CASA GRANDE    MOSUNNY   84  70  61 CALM      29.87R
GILA BEND      MOSUNNY   88  68  51 VRB5      29.85R
$$

AZZ503-504-507>509-191700-
SOUTHEAST ARIZONA

CITY           SKY/WX    TMP DP  RH WIND       PRES   REMARKS
TUCSON         CLOUDY    78  70  76 CALM      29.97R
DAVIS-MONTHAN  MOSUNNY   77  68  73 SE2       29.95R
RYAN FIELD       N/A     79  72  78 E6        29.95S
NOGALES        CLOUDY    71  67  87 S6        30.03R
SIERRA VISTA   PTSUNNY   72  63  73 CALM      30.08R
DOUGLAS        CLOUDY    72  65  78 CALM      30.05R
SAFFORD        CLOUDY    73  66  78 S5        29.98R
$$

AZZ020-021-025-026-031-191700-
SOUTHWEST ARIZONA

CITY           SKY/WX    TMP DP  RH WIND       PRES   REMARKS
YUMA           MOSUNNY   88  55  32 NW9       29.80R
$$

CAZ031-033-041-043-047-048-061-191700-
SOUTHERN CALIFORNIA

CITY           SKY/WX    TMP DP  RH WIND       PRES   REMARKS
DOWNTOWN L.A.  CLOUDY    71  62  73 CALM      29.91R
L.A. AIRPORT   PTSUNNY   70  61  73 W3        29.92R
SAN DIEGO      PTSUNNY   71  63  75 NW8       29.93R
BURBANK        CLOUDY    69  59  70 S3        29.92R
ONTARIO        CLOUDY    70  61  73 VRB3      29.93R
RIVERSIDE      CLOUDY    70  62  76 CALM      29.93R
PALM SPRINGS   SUNNY     82  59  45 CALM      29.82R
EL CENTRO NAS  SUNNY     87  57  35 SW15      29.78R
IMPERIAL       SUNNY     85  58  39 W14       29.78R
BLYTHE         SUNNY     82  60  47 N3        29.80R
NEEDLES        SUNNY     89  51  27 VRB5      29.81R
$$

NVZ020-UTZ003-191700-
SOUTHERN NEVADA-UTAH

CITY           SKY/WX    TMP DP  RH WIND       PRES   REMARKS
LAS VEGAS      MOSUNNY   81  45  28 SW6       29.85R
SALT LAKE CITY MOSUNNY   69  57  65 W3        30.05R
$$

NMZ009-TXZ055-191700-
NEW MEXICO-WEST TEXAS

CITY           SKY/WX    TMP DP  RH WIND       PRES   REMARKS
ALBUQUERQUE    MOSUNNY   73  56  54 VRB5      30.12R
EL PASO        CLOUDY    72  64  76 SW3       30.02R
$$


........................KEY........................
SKY/WX - SKY CONDITION/WEATHER
TMP    - TEMPERATURE IN FAHRENHEIT
DP     - DEW POINT IN FAHRENHEIT
RH     - RELATIVE HUMIDITY IN PERCENT
WIND   - DIRECTION AND SPEED IN MILES PER HOUR (MPH)
VRB    - VARIABLE WIND DIRECTION
PRES   - MEAN SEA LEVEL PRESSURE IN INCHES OF MERCURY
         F - FALLING PRESSURE   R - RISING PRESSURE
         S - STEADY PRESSURE
VSB    - VISIBILITY IN MILES
HX     - HEAT INDEX IN FAHRENHEIT
WCI    - WIND CHILL INDEX IN FAHRENHEIT
TC     - TEMPERATURE IN CELSIUS WHICH IS ALSO KNOWN AS
         TEMPERATURE IN CENTIGRADE
AFB    - AIR FORCE BASE
         LUKE AFB IS LUKE AIR FORCE BASE
         DAVIS-MONTHAN IS DAVIS-MONTHAN AIR FORCE BASE
NAS    - NAVAL AIR STATION
         EL CENTRO NAS IS EL CENTRO NAVAL AIR STATION
N/A    - NOT AVAILABLE



USA.gov is the U.S. government's official web portal to all federal, state and local government web resources and services.